This is the latest recevied weather packets stored in our database for station/object K3PPP. If no packets are shown the sender has not sent any weather packets the latest 10 day(s).
| Time | Temp. | Humidity | Pressure | Rain* | Wind** | Luminosity | Snow |
|---|---|---|---|---|---|---|---|
| 1778185895 | 12.22° C | 49% | 1009.9 hPa | 0 mm | - | 192 W/m² | - |
| 1778185591 | 13.33° C | 47% | 1010.1 hPa | 0 mm | - | 184 W/m² | - |
| 1778185287 | 13.33° C | 48% | 1010 hPa | 0 mm | - | 663 W/m² | - |
| 1778184982 | 12.78° C | 49% | 1010 hPa | 0 mm | - | 691 W/m² | - |
| 1778184680 | 13.33° C | 48% | 1009.8 hPa | 0 mm | - | 189 W/m² | - |
| 1778184375 | 12.22° C | 47% | 1010 hPa | 0 mm | - | 415 W/m² | - |
| 1778184072 | 12.78° C | 46% | 1010.1 hPa | 0 mm | - | 734 W/m² | - |
| 1778183769 | 13.89° C | 48% | 1010.4 hPa | 0 mm | - | 215 W/m² | - |
| 1778183466 | 14.44° C | 48% | 1010.4 hPa | 0 mm | - | 690 W/m² | - |
| 1778183162 | 13.33° C | 45% | 1010.6 hPa | 0 mm | - | 627 W/m² | - |
| 1778182858 | 12.78° C | 47% | 1010.6 hPa | 0 mm | - | 753 W/m² | - |
| 1778182555 | 12.78° C | 48% | 1010.6 hPa | 0 mm | - | 212 W/m² | - |
| 1778182252 | 11.67° C | 49% | 1010.8 hPa | 0 mm | - | 831 W/m² | - |
| 1778181948 | 12.78° C | 49% | 1010.7 hPa | 0 mm | - | 248 W/m² | - |
| 1778181645 | 11.67° C | 50% | 1010.4 hPa | 0 mm | - | 440 W/m² | - |
| 1778181341 | 11.67° C | 51% | 1010.6 hPa | 0 mm | - | 236 W/m² | - |
| 1778181038 | 11.67° C | 53% | 1010.6 hPa | 0 mm | - | 192 W/m² | - |
| 1778180735 | 11.67° C | 53% | 1010.6 hPa | 0 mm | - | 206 W/m² | - |
| 1778180434 | 11.11° C | 52% | 1010.7 hPa | 0 mm | - | 241 W/m² | - |
| 1778180132 | 12.22° C | 52% | 1010.6 hPa | 0 mm | - | 145 W/m² | - |
| 1778179828 | 11.67° C | 52% | 1010.7 hPa | 0 mm | - | 165 W/m² | - |
| 1778179527 | 12.22° C | 51% | 1010.6 hPa | 0 mm | - | 183 W/m² | - |
| 1778179224 | 12.78° C | 48% | 1010.9 hPa | 0 mm | - | 252 W/m² | - |
| 1778178920 | 13.33° C | 46% | 1011 hPa | 0 mm | - | 508 W/m² | - |
| 1778178617 | 13.33° C | 47% | 1010.8 hPa | 0 mm | - | 187 W/m² | - |
* Rain latest hour (hover to see other rain measurements)
** Current wind speed in m/s (hover to see current wind gust speed)